Regional Weather Roundup
Issued by NWS

Home | Current Version | Previous Version | Graphics & Text | Print | Product List | Glossary On
Versions: 1 2 3 4 5 6 7 8 9 10 11 12 13 14 15 16 17 18 19 20 21 22 23 24 25 26 27 28 29 30 31 32 33 34 35 36 37 38 39 40 41 42 43 44 45 46 47 48 49 50
000
ASUS43 KLMK 230002
RWRKY
KENTUCKY REGIONAL WEATHER ROUNDUP
NATIONAL WEATHER SERVICE LOUISVILLE KY
800 PM EDT SUN OCT 22 2017

NOTE "FAIR" INDICATES FEW OR NO CLOUDS BELOW 12,000 FEET
WITH NO SIGNIFICANT WEATHER AND/OR OBSTRUCTIONS TO VISIBILITY.

KYZ001>023-026-027-061>063-070>075-230100-
WESTERN AND SOUTH CENTRAL KENTUCKY

CITY           SKY/WX    TMP DP  RH WIND       PRES   REMARKS
PADUCAH        CLOUDY    67  65  93 E3        29.92F
HENDERSON      CLOUDY    74  61  63 SE7       29.95F
OWENSBORO      CLOUDY    73  61  65 SE10      29.97F
HOPKINSVILLE   NOT AVBL
BOWLING GREEN  PTCLDY    70  60  70 E3        30.01F
GLASGOW        MOCLDY    71  58  64 SE7       30.03S
$$

KYZ024-025-028>034-038-045-046-053-230100-
NORTH CENTRAL KENTUCKY

CITY           SKY/WX    TMP DP  RH WIND       PRES   REMARKS
LOUISVILLE/SDF CLOUDY    73  58  59 SE9       30.02F
LOUISVILLE/LOU CLOUDY    73  59  61 SE9       30.04F
FORT KNOX      CLOUDY    71  58  64 SE7       30.02S
$$

KYZ035>037-039>044-047>052-055>060-089>105-230100-
NORTHEAST KENTUCKY

CITY           SKY/WX    TMP DP  RH WIND       PRES   REMARKS
LEXINGTON      CLOUDY    69  53  56 SE9       30.10S
COVINGTON      CLOUDY    67  53  61 SE10      30.09R
FRANKFORT      MOCLDY    69  53  56 SE7       30.08S
$$

KYZ054-064>069-076>088-106>120-230100-
SOUTHEAST KENTUCKY

CITY           SKY/WX    TMP DP  RH WIND       PRES   REMARKS
JACKSON        PTCLDY    70  48  45 VRB3      30.16S
LONDON         CLOUDY    67  51  56 SE3       30.14S
SOMERSET       CLOUDY    68  54  60 S5        30.11F
MIDDLESBORO    MOCLDY    62  56  80 CALM      30.16F
MONTICELLO     CLOUDY    70  58  65 VRB7      30.12S
$$





USA.gov is the U.S. government's official web portal to all federal, state and local government web resources and services.